TimePST,TemperatureF,Dew PointF,Humidity,Sea Level PressureIn,VisibilityMPH,Wind Direction,Wind SpeedMPH,Gust SpeedMPH,PrecipitationIn,Events,Conditions,WindDirDegrees,DateUTC
12:34 AM,41.0,39.2,93,29.94,1.5,Calm,Calm,-,N/A,,Clear,0,2012-12-08 08:34:00
12:53 AM,41.0,39.0,93,29.92,3.0,Calm,Calm,-,N/A,,Clear,0,2012-12-08 08:53:00
1:34 AM,39.2,37.4,93,29.94,1.8,Calm,Calm,-,N/A,,Clear,0,2012-12-08 09:34:00
1:39 AM,39.2,37.4,93,29.94,0.8,Calm,Calm,-,N/A,,Clear,0,2012-12-08 09:39:00
1:53 AM,39.0,37.9,96,29.93,0.8,Calm,Calm,-,N/A,,Clear,0,2012-12-08 09:53:00
2:02 AM,37.4,37.4,100,29.94,1.5,Calm,Calm,-,N/A,,Clear,0,2012-12-08 10:02:00
2:06 AM,37.4,37.4,100,29.95,4.0,Calm,Calm,-,N/A,,Clear,0,2012-12-08 10:06:00
2:53 AM,39.0,37.0,93,29.93,10.0,East,3.5,-,N/A,,Clear,90,2012-12-08 10:53:00
3:53 AM,39.0,37.0,93,29.92,5.0,Calm,Calm,-,N/A,,Clear,0,2012-12-08 11:53:00
4:17 AM,33.8,33.8,100,29.93,1.8,Calm,Calm,-,N/A,,Clear,0,2012-12-08 12:17:00
4:29 AM,35.6,33.8,93,29.93,3.0,Calm,Calm,-,N/A,,Clear,0,2012-12-08 12:29:00
4:53 AM,36.0,34.0,93,29.93,5.0,Calm,Calm,-,N/A,,Clear,0,2012-12-08 12:53:00
5:53 AM,34.0,32.0,92,29.95,9.0,Calm,Calm,-,N/A,,Clear,0,2012-12-08 13:53:00
6:16 AM,33.8,32.0,93,29.96,1.8,ESE,3.5,-,N/A,,Clear,120,2012-12-08 14:16:00
6:25 AM,33.8,32.0,93,29.96,4.0,Calm,Calm,-,N/A,,Clear,0,2012-12-08 14:25:00
6:53 AM,36.0,34.0,93,29.97,10.0,East,4.6,-,N/A,,Clear,100,2012-12-08 14:53:00
7:53 AM,45.0,39.9,82,29.96,10.0,Calm,Calm,-,N/A,,Clear,0,2012-12-08 15:53:00
8:53 AM,57.0,42.1,57,29.97,10.0,Calm,Calm,-,N/A,,Clear,0,2012-12-08 16:53:00
9:53 AM,66.9,42.1,40,29.96,10.0,Calm,Calm,-,N/A,,Clear,0,2012-12-08 17:53:00
10:53 AM,66.0,45.0,47,29.95,10.0,NW,10.4,-,N/A,,Clear,310,2012-12-08 18:53:00
11:53 AM,68.0,46.0,45,29.92,10.0,NW,10.4,-,N/A,,Clear,310,2012-12-08 19:53:00
12:53 PM,71.1,46.0,41,29.91,10.0,NW,10.4,-,N/A,,Clear,320,2012-12-08 20:53:00
1:53 PM,69.1,46.0,44,29.91,10.0,WNW,9.2,-,N/A,,Clear,300,2012-12-08 21:53:00
2:53 PM,68.0,50.0,52,29.90,10.0,WNW,6.9,-,N/A,,Clear,290,2012-12-08 22:53:00
3:53 PM,64.9,46.9,52,29.90,10.0,WNW,4.6,-,N/A,,Clear,300,2012-12-08 23:53:00
4:53 PM,57.9,46.9,67,29.91,10.0,West,4.6,-,N/A,,Clear,270,2012-12-09 00:53:00
5:53 PM,52.0,46.0,80,29.94,10.0,Calm,Calm,-,N/A,,Clear,0,2012-12-09 01:53:00
6:53 PM,46.9,44.1,90,29.95,8.0,East,3.5,-,N/A,,Clear,90,2012-12-09 02:53:00
7:53 PM,46.9,43.0,86,29.95,7.0,Calm,Calm,-,N/A,,Clear,0,2012-12-09 03:53:00
8:53 PM,44.1,41.0,89,29.95,7.0,Calm,Calm,-,N/A,,Clear,0,2012-12-09 04:53:00
9:53 PM,42.1,39.9,92,29.95,3.0,Calm,Calm,-,N/A,,Clear,0,2012-12-09 05:53:00
10:02 PM,41.0,39.2,93,29.97,2.0,Calm,Calm,-,N/A,,Clear,0,2012-12-09 06:02:00
10:13 PM,41.0,39.2,93,29.97,5.0,Calm,Calm,-,N/A,,Clear,0,2012-12-09 06:13:00
10:46 PM,39.2,37.4,93,29.97,1.8,Calm,Calm,-,N/A,,Clear,0,2012-12-09 06:46:00
10:50 PM,39.2,37.4,93,29.97,0.8,Calm,Calm,-,N/A,,Clear,0,2012-12-09 06:50:00
10:53 PM,39.0,37.9,96,29.96,0.8,Calm,Calm,-,N/A,,Clear,0,2012-12-09 06:53:00
10:57 PM,39.2,37.4,93,29.97,1.2,Calm,Calm,-,N/A,,Clear,0,2012-12-09 06:57:00
11:00 PM,39.2,37.4,93,29.98,3.0,Calm,Calm,-,N/A,,Clear,0,2012-12-09 07:00:00
11:23 PM,39.2,37.4,93,29.97,1.0,Calm,Calm,-,N/A,,Clear,0,2012-12-09 07:23:00
11:28 PM,37.4,37.4,100,29.97,2.0,Calm,Calm,-,N/A,,Clear,0,2012-12-09 07:28:00
11:38 PM,37.4,35.6,93,29.97,4.0,East,3.5,-,N/A,,Clear,90,2012-12-09 07:38:00
11:53 PM,37.0,36.0,96,29.96,2.5,Calm,Calm,-,N/A,,Clear,0,2012-12-09 07:53:00